STARLINK-36892

Last updated on Fri Mar 27 2026 00:02:06 GMT+0000 (Coordinated Universal Time)

1 67944U 26037N 26085.50002314 -.00248697 00000+0 -43540-2 0 9999 2 67944 43.0003 96.9910 0001591 291.2982 218.3132 15.50676527 5903
UTC large
Height (km)
Speed (km/s)
/
Latitude / Longitude
Inclination (degrees)
Orbital Period (minutes)
Azimuth
Elevation
Range (km)
Doppler Factor

Next 0 passes for location: London (51.5072 / 0.1276)

Sorry there are no passes over London.